Temp
8 10 11 11 13 14 15 16 16 17 17 18 17 18 21 21 21 21 21 21 22 21 21 21 20 19 17 16 15 14 13 13 13 12 12 11 11 11 10 10 10 10 10 10
9 11 12 9 15 15 14 15 18 19 17 19 20 20 19 18 17 17 17 17 19 19 19 20 21 20 19 18 17 15 15 14 13 13 12 12 11 11 11 10 10 10 10 10
7 8 10 12 13 14 15 16 16 15 14 18 18 19 17 16 15 15 15 15 15 16 17 17 18 18 18 19 18 17 16 15 14 13 13 12 12 11 11 11 11 11 11 10
7 8 9 12 12 14 14 13 14 14 15 17 18 17 16 15 15 15 14 14 13 13 14 14 15 16 17 17 17 18 17 16 14 14 13 13 12 12 11 11 11 10 10 10
7 8 9 12 11 11 14 11 12 14 15 17 17 16 15 15 14 14 14 14 12 12 11 12 13 14 14 14 15 16 17 17 16 15 14 13 13 13 12 11 11 10 10 10
7 8 8 11 11 9 9 8 11 13 14 14 15 14 13 13 14 15 14 13 12 10 10 11 12 11 11 12 13 14 15 16 15 16 15 15 14 13 13 12 11 11 10 10
8 8 12 14 12 10 8 9 11 12 12 11 11 11 11 11 12 13 13 11 10 9 7 9 10 10 10 10 11 10 11 13 14 14 14 14 14 14 13 13 12 11 11 10
9 9 10 13 12 11 10 10 11 11 10 10 10 10 9 10 10 10 9 8 8 7 4 4 6 7 7 8 7 7 8 9 11 11 13 13 13 13 13 13 13 11 11 10
11 11 11 11 11 10 10 9 9 9 8 8 8 8 7 8 7 7 6 4 3 3 2 3 3 4 5 6 6 7 7 7 8 8 8 9 9 10 10 11 10 11 10 9
11 10 10 9 9 9 8 8 7 7 6 6 6 6 6 5 3 3 2 1 -0 -1 -1 1 2 3 3 4 4 5 6 6 6 5 6 6 7 6 6 8 8 7 6 6
8 7 5 7 7 7 6 6 5 5 5 4 4 3 4 1 -0 -1 -2 -3 -3 -2 -2 -1 1 1 1 1 2 3 4 5 6 5 5 3 2 1 -1 -1 2 3 1 -0
6 7 5 5 4 5 4 4 3 3 2 1 0 1 1 -2 -4 -4 -3 -3 -3 -3 -2 -2 -1 -0 1 1 1 1 1 2 2 2 3 2 2 1 -1 -6 -5 -3 -2 -2
4 5 4 4 2 1 1 1 1 0 -1 -2 -3 -3 -4 -4 -6 -5 -5 -5 -4 -5 -5 -5 -4 -3 -2 -2 -2 -1 -1 -1 -1 -1 -2 -3 -3 -2 -4 -6 -6 -7 -7 -6
2 4 3 0 0 -1 -1 -0 -2 -3 -4 -4 -5 -6 -6 -7 -7 -7 -6 -7 -7 -7 -6 -6 -6 -6 -6 -5 -4 -4 -4 -3 -3 -4 -5 -5 -6 -7 -7 -7 -7 -8 -8 -8
1 1 0 -1 -1 -2 -2 -2 -3 -4 -6 -7 -8 -8 -9 -9 -9 -9 -8 -8 -8 -8 -7 -7 -7 -8 -8 -7 -6 -6 -6 -6 -6 -6 -6 -7 -7 -7 -8 -9 -9 -10 -9 -9
-0 -1 -1 -1 -2 -2 -3 -4 -4 -5 -7 -8 -9 -9 -10 -10 -10 -9 -9 -8 -7 -9 -9 -8 -7 -8 -8 -8 -8 -8 -7 -8 -8 -8 -8 -8 -8 -8 -9 -9 -9 -10 -11 -11
-3 -3 -4 -4 -4 -5 -6 -6 -7 -8 -9 -9 -9 -9 -10 -11 -11 -11 -11 -10 -9 -9 -10 -9 -9 -8 -8 -8 -8 -9 -9 -8 -9 -9 -9 -9 -10 -10 -10 -11 -11 -12 -13 -13
-6 -6 -7 -6 -6 -7 -8 -9 -10 -10 -11 -11 -11 -10 -10 -11 -11 -11 -11 -11 -10 -9 -10 -10 -10 -9 -8 -9 -9 -10 -10 -10 -10 -11 -11 -11 -12 -12 -13 -13 -13 -13 -14 -14
-8 -8 -9 -9 -9 -9 -10 -11 -11 -12 -11 -11 -11 -11 -11 -11 -11 -11 -11 -10 -10 -10 -11 -11 -11 -10 -10 -10 -10 -11 -11 -12 -12 -13 -13 -13 -13 -14 -14 -15 -15 -15 -16 -16
-10 -10 -11 -11 -11 -11 -12 -12 -12 -12 -12 -11 -11 -11 -11 -12 -13 -12 -11 -11 -13 -13 -12 -12 -11 -11 -12 -12 -12 -12 -13 -14 -14 -14 -15 -15 -15 -15 -16 -16 -16 -17 -17 -18
-11 -12 -12 -12 -13 -12 -12 -12 -11 -11 -12 -12 -11 -12 -12 -13 -12 -13 -14 -13 -14 -14 -13 -12 -13 -14 -14 -14 -14 -14 -15 -15 -16 -16 -16 -16 -17 -17 -17 -17 -18 -18 -18 -18
-12 -12 -12 -12 -12 -12 -12 -12 -12 -12 -12 -12 -13 -13 -14 -14 -14 -13 -14 -15 -15 -14 -13 -13 -13 -14 -15 -16 -16 -16 -17 -17 -17 -17 -17 -18 -18 -18 -19 -19 -19 -19 -19 -20
-12 -12 -12 -12 -12 -12 -12 -12 -12 -12 -12 -13 -13 -14 -14 -14 -14 -15 -14 -15 -15 -15 -14 -15 -15 -16 -17 -17 -18 -18 -18 -19 -19 -19 -19 -19 -19 -20 -20 -19 -20 -20 -20 -20
-12 -12 -12 -12 -12 -13 -13 -14 -14 -14 -14 -14 -14 -14 -15 -15 -16 -17 -16 -16 -15 -15 -16 -16 -16 -16 -16 -17 -18 -18 -17 -18 -19 -20 -20 -20 -21 -21 -21 -21 -21 -21 -21 -21
-12 -12 -11 -11 -12 -12 -13 -13 -13 -14 -15 -15 -16 -17 -17 -16 -16 -17 -17 -17 -18 -19 -18 -17 -16 -19 -18 -18 -18 -19 -20 -19 -19 -20 -21 -21 -21 -22 -22 -21 -21 -20 -21 -21
-11 -12 -12 -12 -12 -12 -12 -12 -13 -14 -14 -15 -16 -17 -18 -18 -18 -18 -19 -18 -18 -19 -19 -19 -18 -18 -18 -19 -20 -20 -21 -21 -20 -20 -20 -21 -21 -22 -22 -21 -21 -21 -21 -20
-12 -12 -12 -13 -14 -14 -14 -14 -14 -15 -15 -16 -16 -17 -18 -18 -18 -19 -19 -19 -19 -20 -20 -20 -20 -20 -20 -20 -21 -21 -22 -22 -22 -21 -21 -22 -22 -22 -21 -20 -20 -20 -21 -21
Height
1410 1404 1398 1394 1388 1389 1389 1387 1387 1381 1385 1382 1381 1383 1376 1379 1380 1383 1384 1385 1384 1387 1389 1391 1395 1398 1401 1404 1406 1409 1412 1413 1413 1415 1417 1420 1423 1426 1430 1433 1436 1439 1442 1444
1406 1399 1395 1402 1380 1382 1388 1383 1375 1371 1382 1375 1380 1380 1381 1385 1386 1388 1390 1391 1391 1391 1390 1391 1392 1392 1394 1396 1400 1403 1404 1405 1411 1413 1414 1414 1416 1418 1421 1424 1426 1431 1432 1435
1415 1406 1397 1389 1385 1383 1381 1377 1381 1387 1390 1382 1380 1383 1388 1391 1394 1395 1396 1397 1397 1396 1393 1392 1392 1392 1392 1394 1394 1396 1397 1400 1403 1406 1407 1407 1411 1414 1413 1413 1417 1417 1420 1424
1416 1407 1400 1381 1381 1380 1381 1385 1385 1390 1388 1386 1384 1386 1392 1397 1399 1401 1402 1401 1401 1399 1396 1395 1392 1390 1389 1389 1393 1393 1392 1394 1395 1399 1401 1405 1406 1405 1406 1409 1410 1411 1411 1413
1417 1409 1403 1385 1389 1385 1379 1396 1397 1392 1390 1388 1386 1388 1397 1401 1402 1403 1402 1402 1401 1401 1400 1397 1395 1391 1390 1389 1388 1391 1392 1393 1391 1391 1393 1396 1397 1396 1399 1402 1404 1405 1408 1410
1417 1410 1404 1393 1391 1397 1399 1409 1403 1395 1391 1393 1391 1395 1403 1403 1403 1402 1402 1402 1403 1402 1400 1396 1394 1392 1389 1388 1386 1383 1382 1383 1383 1387 1385 1386 1387 1389 1392 1394 1395 1398 1402 1400
1411 1409 1390 1380 1388 1391 1405 1410 1403 1400 1400 1403 1404 1409 1409 1407 1404 1403 1403 1403 1405 1402 1398 1395 1393 1391 1390 1388 1384 1384 1381 1378 1378 1379 1378 1381 1381 1382 1383 1386 1386 1387 1389 1390
1407 1403 1399 1386 1390 1389 1399 1403 1403 1403 1405 1406 1409 1410 1411 1410 1407 1406 1405 1404 1405 1404 1399 1394 1393 1391 1389 1386 1386 1383 1378 1373 1376 1376 1373 1374 1373 1376 1376 1377 1377 1378 1380 1384
1391 1390 1387 1390 1394 1398 1402 1405 1408 1409 1410 1412 1412 1413 1412 1410 1409 1409 1408 1407 1405 1403 1400 1396 1393 1391 1390 1387 1386 1382 1379 1377 1375 1373 1372 1372 1369 1371 1373 1371 1372 1371 1372 1372
1385 1387 1392 1396 1399 1403 1407 1410 1413 1415 1415 1415 1414 1413 1412 1412 1412 1410 1409 1408 1406 1403 1400 1397 1395 1393 1390 1388 1385 1383 1380 1379 1377 1374 1371 1369 1369 1368 1368 1368 1367 1367 1366 1365
1393 1394 1402 1402 1405 1410 1413 1414 1416 1417 1418 1416 1416 1416 1416 1414 1413 1412 1410 1408 1407 1404 1401 1398 1396 1394 1392 1389 1387 1384 1380 1376 1377 1376 1374 1374 1371 1368 1369 1371 1365 1360 1363 1366
1401 1404 1405 1410 1413 1414 1415 1416 1417 1417 1418 1418 1417 1417 1416 1414 1414 1412 1411 1409 1406 1404 1402 1399 1397 1394 1392 1390 1387 1386 1384 1378 1376 1375 1374 1374 1373 1374 1375 1380 1377 1364 1361 1368
1410 1410 1410 1414 1415 1417 1418 1420 1420 1419 1419 1418 1417 1416 1415 1414 1414 1412 1410 1408 1406 1403 1402 1401 1399 1396 1393 1391 1387 1386 1384 1381 1378 1377 1377 1377 1376 1373 1380 1387 1379 1376 1376 1374
1412 1410 1411 1415 1418 1419 1419 1420 1419 1419 1417 1416 1417 1416 1415 1414 1413 1412 1411 1411 1410 1407 1405 1403 1400 1398 1397 1395 1391 1389 1387 1383 1381 1381 1382 1382 1383 1383 1384 1388 1383 1385 1389 1383
1417 1416 1418 1419 1419 1419 1419 1420 1420 1419 1418 1418 1417 1417 1416 1415 1415 1415 1414 1414 1413 1411 1408 1405 1403 1402 1403 1401 1398 1394 1392 1389 1388 1387 1387 1387 1389 1391 1389 1391 1394 1394 1395 1393
1421 1420 1420 1420 1421 1421 1421 1421 1422 1422 1421 1420 1420 1420 1420 1419 1418 1418 1417 1416 1414 1413 1412 1410 1408 1407 1408 1406 1405 1401 1399 1395 1396 1395 1395 1394 1398 1399 1399 1400 1395 1398 1401 1398
1423 1423 1423 1423 1423 1423 1423 1424 1423 1423 1422 1422 1423 1424 1424 1424 1423 1421 1420 1419 1418 1417 1417 1414 1413 1411 1410 1410 1409 1409 1406 1403 1402 1402 1400 1400 1402 1403 1403 1403 1406 1405 1402 1403
1427 1426 1426 1426 1426 1425 1425 1425 1425 1424 1424 1424 1424 1424 1423 1424 1424 1425 1424 1424 1423 1421 1418 1418 1417 1415 1412 1412 1412 1411 1409 1409 1408 1407 1406 1405 1405 1407 1408 1406 1406 1407 1407 1408
1430 1429 1429 1428 1428 1428 1428 1427 1427 1427 1427 1427 1427 1428 1428 1428 1427 1428 1428 1427 1424 1423 1422 1421 1419 1418 1416 1415 1415 1414 1412 1413 1413 1412 1411 1410 1409 1410 1410 1410 1411 1411 1412 1411
1433 1432 1431 1431 1431 1431 1431 1431 1431 1431 1431 1431 1432 1432 1432 1431 1431 1431 1430 1428 1427 1427 1426 1424 1423 1420 1419 1418 1416 1415 1415 1416 1415 1415 1415 1413 1413 1413 1412 1411 1412 1412 1413 1412
1437 1437 1436 1436 1435 1435 1435 1435 1435 1435 1436 1436 1436 1435 1435 1435 1434 1433 1432 1430 1429 1428 1427 1425 1424 1422 1421 1420 1418 1418 1418 1418 1418 1417 1417 1417 1417 1416 1415 1415 1415 1415 1415 1415
1440 1440 1439 1440 1439 1439 1440 1440 1440 1440 1439 1439 1439 1439 1438 1437 1435 1434 1433 1433 1431 1430 1428 1427 1426 1425 1424 1422 1422 1422 1421 1419 1417 1418 1418 1419 1419 1418 1417 1416 1417 1416 1415 1415
1443 1443 1444 1444 1443 1444 1444 1443 1443 1443 1442 1442 1441 1441 1440 1439 1438 1436 1435 1434 1433 1431 1430 1429 1428 1427 1426 1425 1424 1423 1422 1420 1420 1419 1419 1419 1420 1420 1419 1417 1417 1415 1413 1413
1447 1447 1447 1447 1448 1448 1447 1446 1446 1445 1444 1444 1443 1443 1442 1442 1439 1438 1437 1436 1434 1433 1432 1431 1430 1429 1427 1426 1425 1424 1423 1422 1422 1422 1422 1422 1421 1420 1418 1416 1414 1413 1412 1412
1449 1449 1449 1449 1449 1449 1448 1448 1448 1448 1448 1446 1445 1444 1442 1441 1441 1439 1438 1437 1436 1435 1433 1433 1431 1430 1428 1427 1426 1426 1425 1424 1423 1423 1422 1421 1419 1417 1415 1413 1412 1411 1409 1407
1451 1451 1450 1450 1451 1451 1451 1451 1451 1449 1449 1447 1446 1445 1444 1443 1442 1442 1439 1438 1437 1436 1435 1433 1432 1431 1429 1428 1427 1426 1425 1424 1423 1421 1420 1419 1417 1415 1413 1411 1409 1408 1406 1404
1451 1452 1452 1451 1450 1449 1449 1449 1449 1448 1448 1447 1447 1446 1445 1444 1443 1442 1441 1439 1439 1437 1436 1435 1433 1431 1430 1428 1427 1426 1425 1423 1420 1419 1417 1416 1414 1412 1410 1408 1407 1405 1404 1402
Wind_Speed
13 16 16 14 16 21 22 19 15 11 16 12 15 14 6 14 11 9 14 22 13 11 1 15 19 23 27 29 31 32 33 35 38 38 37 36 36 40 41 43 46 46 44 46
10 15 15 16 12 14 11 15 15 11 6 8 6 10 16 21 22 20 20 22 19 18 19 18 7 21 25 29 30 32 35 38 35 36 37 41 41 41 42 45 46 47 49 51
4 13 7 9 12 10 10 10 8 9 4 7 4 6 16 19 18 18 18 18 18 20 17 19 19 16 14 21 27 31 35 36 37 37 38 40 41 42 46 48 47 50 52 51
4 10 4 9 12 12 4 8 8 7 4 6 5 18 19 17 16 15 14 16 16 19 19 15 14 11 12 7 9 27 30 34 35 35 38 37 37 42 44 44 46 48 50 50
3 4 6 4 2 9 12 5 5 3 10 4 7 18 17 20 13 11 13 13 15 14 12 12 13 13 13 14 14 12 13 25 31 32 35 36 39 42 42 41 41 43 43 41
4 4 1 3 6 17 9 3 6 6 14 15 14 7 9 21 16 11 11 13 16 11 13 16 19 14 9 7 7 9 11 12 7 28 33 35 37 39 39 39 41 37 37 40
7 4 5 6 14 21 2 3 6 12 17 16 10 11 16 17 17 18 18 16 18 17 16 16 16 13 12 13 13 15 14 15 14 12 18 31 33 34 34 36 37 40 40 40
9 7 6 4 8 2 8 10 9 17 18 16 15 16 17 16 19 19 21 21 20 17 19 19 18 16 17 18 18 19 18 16 18 18 15 17 19 26 31 34 38 38 38 39
8 6 13 22 20 18 19 17 16 14 14 13 13 14 16 17 18 18 18 19 17 16 15 17 19 18 16 17 20 21 18 15 15 14 15 14 9 15 18 23 27 32 35 35
3 11 15 21 21 20 18 16 13 12 12 13 13 15 16 16 16 16 17 17 17 16 16 17 16 15 14 13 15 18 23 24 27 23 14 8 8 6 10 16 20 22 22 24
8 10 18 19 21 15 15 14 13 12 13 16 15 15 14 13 15 14 14 14 14 14 14 15 15 14 15 14 12 11 11 13 18 21 20 16 11 10 11 7 9 12 10 8
4 11 13 17 17 13 13 13 13 12 13 13 13 12 12 11 12 12 12 12 12 13 13 14 14 13 13 12 11 10 10 11 11 10 11 12 12 10 15 21 13 13 15 12
9 10 17 14 17 14 13 11 11 11 11 11 12 10 10 7 9 10 12 12 13 14 14 15 16 15 14 12 11 8 7 9 10 9 12 15 16 16 22 25 25 33 31 31
18 9 13 17 10 12 11 10 9 10 10 10 10 10 9 8 9 11 14 14 13 13 15 16 18 21 18 15 12 12 12 12 13 15 16 18 21 24 25 24 28 30 26 28
17 11 9 8 11 13 11 10 10 11 10 11 11 11 10 12 14 16 15 16 17 18 20 20 23 23 20 18 17 17 19 21 20 19 20 21 21 22 24 25 25 24 20 20
11 12 11 11 10 11 12 12 10 10 10 11 11 13 14 15 16 16 16 15 16 22 22 21 21 20 18 18 19 20 20 22 20 20 20 21 19 19 19 18 19 17 15 14
12 12 12 10 12 9 11 11 10 9 9 10 11 12 13 15 16 17 18 18 18 19 19 19 20 16 16 16 16 16 17 17 17 17 18 16 15 14 14 14 15 15 16 12
10 10 9 8 8 9 10 9 8 8 9 9 10 11 12 13 15 15 15 14 14 15 18 18 17 15 15 16 14 14 15 14 14 15 15 16 16 14 14 14 13 12 11 9
11 11 11 11 10 10 10 11 11 12 12 12 13 16 16 15 14 13 10 10 13 14 17 15 14 13 14 13 12 13 12 11 12 13 12 11 12 12 12 11 10 8 7 6
12 11 10 11 12 12 14 13 12 13 12 12 12 13 14 14 12 11 11 13 15 14 11 10 9 10 11 10 9 9 9 10 11 11 10 10 9 9 9 9 8 8 9 9
13 13 15 16 16 15 15 13 13 14 14 14 14 14 13 11 9 8 10 11 11 10 10 10 10 11 11 11 10 10 10 11 11 11 11 10 9 8 8 8 7 6 5 5
12 13 14 14 14 15 13 13 13 13 12 11 12 12 11 12 12 10 9 9 9 9 9 10 10 10 10 11 11 10 9 9 9 8 7 6 6 5 5 5 3 3 2 3
12 12 13 13 13 13 11 10 9 8 7 7 8 10 11 8 5 4 7 9 9 9 9 10 10 10 11 10 9 10 11 12 11 9 8 7 5 4 3 2 2 4 5 2
11 11 11 11 11 10 9 9 8 8 9 7 4 5 6 5 7 7 7 8 7 8 8 8 8 9 9 9 10 11 9 7 7 6 6 5 5 4 5 7 4 6 6 6
9 10 10 9 8 6 7 7 8 7 6 6 6 7 7 3 2 4 5 6 6 5 8 8 8 10 9 9 9 7 8 9 8 6 5 6 6 6 8 8 8 9 8 9
5 4 4 5 5 4 2 1 2 2 2 4 5 4 3 2 3 4 9 9 9 7 7 9 9 7 7 7 8 9 7 9 9 9 7 7 9 7 11 12 10 10 11 12
5 4 3 4 5 3 3 3 2 1 3 2 2 1 3 5 6 5 5 4 5 6 6 7 10 13 12 8 8 8 8 8 11 11 10 10 11 11 13 13 13 13 13 13
Wind_Direction
298 307 293 276 243 211 233 231 220 208 233 214 54 289 40 36 38 352 334 8 22 27 280 203 214 217 219 224 229 226 221 222 222 229 231 233 231 228 229 228 226 228 229 233
295 283 267 286 252 209 245 231 260 261 234 356 155 16 45 41 48 36 25 19 14 7 359 356 258 217 220 224 226 230 234 232 228 228 230 231 230 227 228 229 232 228 231 231
288 328 265 256 213 228 250 233 220 275 63 268 46 50 65 54 48 43 27 21 15 6 1 358 357 351 2 234 226 227 239 242 236 231 232 233 232 231 234 233 232 234 235 233
285 311 214 345 324 309 84 16 36 187 242 118 120 97 84 63 45 41 35 26 18 9 5 356 339 318 302 315 323 235 237 241 241 235 237 237 236 235 237 235 235 238 238 238
284 300 307 359 318 3 201 131 295 206 161 198 48 78 41 29 39 24 24 27 23 16 4 356 333 320 322 331 335 332 264 247 242 239 239 240 238 239 239 236 238 241 242 242
228 264 266 252 84 60 42 73 331 304 50 33 27 96 21 5 2 6 29 40 31 17 360 8 17 13 357 319 298 274 258 247 300 247 244 243 243 243 243 240 241 240 243 241
227 275 269 330 156 150 138 141 324 68 50 44 43 29 10 6 7 17 30 37 31 23 0 11 12 8 350 341 333 319 306 279 275 258 238 238 245 244 240 241 236 235 235 239
225 225 238 124 261 95 112 120 63 58 44 38 31 21 18 13 28 23 23 24 26 19 7 4 17 17 11 8 3 350 339 323 291 283 261 249 240 236 235 236 238 233 235 239
192 214 91 80 90 75 80 76 54 50 39 32 30 21 20 27 28 24 21 16 7 11 3 7 19 24 29 34 26 11 355 345 331 308 284 285 265 247 242 238 239 236 234 230
229 76 94 98 84 77 72 67 57 53 47 41 36 27 24 30 25 23 18 14 9 11 7 10 18 24 30 30 44 42 29 23 19 358 330 307 295 289 252 238 227 222 215 215
94 64 84 77 76 70 67 62 54 54 48 43 39 32 29 30 26 23 17 12 11 9 8 4 0 2 5 10 15 21 31 31 16 17 13 355 356 24 20 345 243 214 203 172
70 45 97 82 70 59 59 54 48 45 41 37 35 33 35 33 27 19 9 8 8 6 4 2 0 359 357 359 4 359 4 26 39 41 33 27 14 23 38 44 65 99 115 122
41 21 82 83 68 53 55 47 54 58 49 43 35 37 44 27 24 15 17 19 21 26 26 25 23 19 20 22 23 20 35 51 56 62 71 78 84 85 91 96 93 85 91 97
29 33 45 44 40 37 42 45 52 57 43 40 42 40 41 46 38 41 38 40 46 54 58 55 52 44 40 41 47 56 65 72 81 88 92 96 97 102 103 100 94 93 96 99
20 44 52 32 31 31 33 38 49 48 44 39 37 52 52 59 62 67 71 72 71 73 71 71 69 63 56 60 64 73 78 81 85 92 96 98 103 103 101 98 94 89 88 86
17 47 38 39 27 26 31 36 48 50 58 60 59 70 71 76 79 81 79 82 78 68 68 67 68 67 64 66 69 80 86 91 89 94 96 95 98 101 104 102 97 96 87 75
16 13 11 15 25 48 44 41 48 58 67 82 95 98 90 84 81 78 75 77 78 75 68 67 66 69 70 65 67 67 76 84 88 89 90 91 91 89 93 99 102 96 85 76
33 46 42 39 45 60 55 53 64 74 78 89 102 111 106 95 85 81 78 78 75 73 68 58 59 60 63 59 58 63 67 69 77 83 89 86 83 84 81 82 79 75 74 74
50 56 57 61 69 78 77 76 81 88 91 94 98 90 84 80 79 76 72 69 62 58 48 45 41 43 45 51 50 53 54 59 69 67 70 83 90 90 83 77 76 75 69 51
60 64 68 81 87 86 93 98 106 104 104 103 100 99 93 85 68 59 53 55 52 43 37 31 35 40 45 44 45 54 66 68 58 55 59 70 70 69 62 63 64 56 49 48
77 85 87 87 87 89 91 94 99 97 94 92 87 78 72 67 52 52 45 43 43 33 29 35 39 49 50 45 48 59 62 61 66 65 61 58 60 70 78 70 69 73 73 75
84 85 86 88 90 90 91 94 95 96 92 86 81 75 59 44 25 25 41 45 35 31 33 37 49 54 57 46 50 56 63 68 70 69 77 80 70 68 71 68 65 58 81 72
93 94 97 94 90 89 89 85 84 79 74 71 70 51 34 34 45 33 30 38 41 30 33 43 47 50 50 49 55 57 50 45 42 46 48 40 48 43 18 97 44 341 333 341
103 98 90 82 74 71 64 53 40 42 43 50 72 92 103 21 12 17 30 30 35 31 37 40 39 34 35 38 37 25 29 46 46 28 20 18 12 13 352 337 336 305 308 320
89 80 66 61 58 58 47 46 43 48 48 36 29 19 25 24 322 34 21 32 40 48 4 20 26 31 17 19 20 32 17 354 8 354 4 348 339 342 322 313 317 325 325 313
102 81 94 114 81 69 51 48 70 69 35 14 355 358 2 37 38 22 4 21 13 18 15 357 3 359 4 9 2 356 8 336 338 330 341 326 323 323 310 316 319 316 315 316
70 84 47 42 22 330 196 182 118 91 248 217 264 358 347 346 15 12 11 8 356 358 352 356 347 347 351 357 344 346 344 334 324 333 336 324 319 315 312 316 317 316 312 311